Skip Page Navigation
NASA JPL Caltech
NASA Logo - Jet Propulsion Laboratory + View the NASA Portal
+ Near-Earth Object (NEO) Program
Search JPL
JPL Home Earth Solar System Stars & Galaxies Technology
JPL Solar System Dynamics
BODIES ORBITS EPHEMERIDES TOOLS PHYSICAL DATA DISCOVERY FAQ SITE MAP
JPL Small-Body Database Browser
Search: [ help ]  
9819 Sangerhausen (2172 T-1)
Classification: Main-belt Asteroid          SPK-ID: 2009819
Ephemeris | Orbit Diagram | Orbital Elements | Physical Parameters | Discovery Circumstances | Close-Approach Data ]

[ show orbit diagram ]
Orbital Elements at Epoch 2457000.5 (2014-Dec-09.0) TDB
Reference: JPL 6 (heliocentric ecliptic J2000)
 Element Value Uncertainty (1-sigma)   Units 
e .1813636765853548 4.8978e-08  
a 2.188176017900303 1.3731e-08 AU
q 1.791320370278003 1.1121e-07 AU
i 2.453652646566847 5.7648e-06 deg
node 56.6986754000477 0.00012989 deg
peri 244.9277764340694 0.00013122 deg
M 79.5503620859091 2.422e-05 deg
tp 2456739.246890804758
(2014-Mar-22.74689080)
7.8117e-05 JED
period 1182.28398770477
3.24
1.1128e-05
3.047e-08
d
yr
n .3044953697621218 2.866e-09 deg/d
Q 2.585031665522603 1.6221e-08 AU
  Orbit Determination Parameters
   # obs. used (total)      856  
   data-arc span      15801 days (43.26 yr)  
   first obs. used      1971-03-24  
   last obs. used      2014-06-27  
   planetary ephem.      DE431  
   SB-pert. ephem.      SB431-BIG16  
   condition code      0  
   fit RMS      .55448  
   data source      ORB  
   producer      Otto Matic  
   solution date      2014-Jul-14 12:22:38  

Additional Information
 Earth MOID = .778675 AU 
 T_jup = 3.652 
[ show covariance matrix ]

Ephemeris | Orbit Diagram | Orbital Elements | Physical Parameters | Discovery Circumstances | Close-Approach Data ]

Physical Parameter Table
Parameter Symbol Value Units Sigma Reference Notes
absolute magnitude H 14.8 mag n/a MPO266010  

9819 Sangerhausen           Discovered 1971 Mar. 25 by C. J. van Houten and I. van Houten-Groeneveld on Palomar Schmidt plates taken by T. Gehrels.
In the vicinity of the German city of Sangerhausen, a remarkable archaeological object was unearthed. This 4000-year-old bronze disc shows a quasi-real starry sky. Its similarity to Homer's Iliad 18, 484--486 is striking. The name was suggested by W. Schlosser and L. D. Schmadel.
NOTE: some special characters may not display properly (any characters within {} are an attempt to place the proper accent above a character)
Reference: 20021120/MPCPages.arcLast Updated: 2003-10-02

[ show close-approach data ]
Alternate Designations
 2172 T-1 = 1981 JV5 = 1997 GY15 
Ephemeris | Orbit Diagram | Orbital Elements | Physical Parameters | Discovery Circumstances | Close-Approach Data ]
ABOUT SSD CREDITS/AWARDS PRIVACY/COPYRIGHT GLOSSARY LINKS
FirstGov 2014-Sep-19 05:50 UT
(server date/time)  
NASA Home Page
Site Manager:   Donald K. Yeomans
Webmaster  Alan B. Chamberlin